COSMOS 1602

Satellite information

Favourite Embed

Satellite Type and Status

PAYLOADIN ORBIT

Key statistics

Satellite COSMOS 1602 at a glance.

Uptime

14953

Days in orbit

Revolutions

≈ 15.5

Per day

Orbit

LEO

Low Earth Orbit

Inclination

82.5

Latest

Satellite identification and parameters

Extended collection of information and parameters for COSMOS 1602.

Object identification

Identified? True

Debris? False

Object name: COSMOS 1602

International designator: 1984-105A

Object number (NORAD): 15331

Object ID (CCSDS): 15331

Country: COMMONWEALTH OF INDEPENDENT STATES (CIS)

Current information (Y/N): Y

RCS size: LARGE

Orbital parameters

Period: 92.624 minutes

Inclination: 82.5185 deg

SMA: 6781.222 km

Apoapsis: 405.926 km

Periapsis: 400.248 km

RAAN: 234.9753 deg

Eccentricy: 0.00041865

Argument of periapsis: 229.5003 deg

Mean anomaly: 130.5886 deg

Mean motion: 15.54679439 rev/day

Mean motion (dot): 0.00042183 rev/day2

B* drag term: 0.00063381998 1/REarth

Two-line elements (TLE)

Creation date: Sept. 4, 2025, 10:13 a.m.

Reference frame: TEME

Reference center: EARTH

Epoch: Sept. 4, 2025, 12:24 a.m. UTC

TLE line 0: 0 COSMOS 1602

TLE line 1: 1 15331U 84105A 25247.01675254 .00042183 00000-0 63382-3 0 9994

TLE line 2: 2 15331 82.5185 234.9753 0004186 229.5003 130.5886 15.54679439237328

Live tracking on map

Real-time ground track for satellite COSMOS 1602.

In-orbit conjunctions

A list of the most updated potential collisions computed for object COSMOS 1602.

Target Orbit TCA Probability of collision Miss distance Type
FENGYUN 1C DEB SSO 2024-06-06 10:41:04 0.0008817378 96.0 (m) DEBRIS

Associated space launch

Experimental ocean-monitoring satellite

COSMOS 1602 was lifted into orbit during the mission ‘Tsiklon-3 | Okean-OE 2’, on board a Tsiklon-3 space rocket.

The launch took place on Sept. 28, 1984, 6 a.m. from 32/2.

For more information about the launch, click the button.

Launch to space Tsiklon-3 | Okean-OE 2
Tsiklon-3 | Okean-OE 2

Agency: N/A

Status: Launch Successful

Launch date: Sept. 28, 1984, 6 a.m. UTC

Rocket: Tsiklon-3

Launch pad: 32/2

Location: Plesetsk Cosmodrome, Russian Federation

...

Latest news about this satellite

There are no fresh news available about this satellite. Check back as we update our databases every day.


Newsletter sign-up

Weekly statistics, charts and insights to help you stay on top of the space industry.